Weather History for Kalaeloa, HI

Change the Weather History Date:

Tuesday, December 20, 2011

  Actual Average (PHNL) Record (PHNL)
Temperature  
Mean Temperature 75 °F 74 °F  
Max Temperature 80 °F 81 °F 87 °F (1979)
Min Temperature 70 °F 68 °F 54 °F (1962)
Degree Days  
Heating Degree Days 0 0  
Month to date heating degree days 0  
Since 1 July heating degree days 0  
Cooling Degree Days 10 9  
Month to date cooling degree days 204  
Year to date cooling degree days 4530  
Growing Degree Days 25 (Base 50)    
Moisture  
Dew Point 63 °F    
Average Humidity 70    
Maximum Humidity 78    
Minimum Humidity 56    
Precipitation  
Precipitation 0.00 in 0.12 in 5.37 in (1955)
Month to date precipitation 1.99  
Year to date precipitation 15.85  
Snow  
Snow 0.00 in - - ()
Month to date snowfall  
Since 1 July snowfall  
Snow Depth -    
Sea Level Pressure  
Sea Level Pressure 30.05 in    
Wind  
Wind Speed 5 mph (ENE)    
Max Wind Speed 13 mph    
Max Gust Speed 24 mph    
Visibility 10 miles    
Events Rain    
T = Trace of Precipitation, MM = Missing Value Source: NWS Daily Summary

Daily Weather History Graph

Daily Weather History Graph

Search for Another Location

Airport:

Trip Planner

Search our weather history database for the weather conditions in past years. The results will help you decide how hot, cold, wet, or windy it might be!

Date:

Astronomy

Dec. 20, 2011 Rise Set
Actual Time 7:04 AM HST 5:55 PM HST
Civil Twilight 6:40 AM HST 6:19 PM HST
Nautical Twilight 6:12 AM HST 6:47 PM HST
Astronomical Twilight 5:45 AM HST 7:14 PM HST
Moon 2:54 AM HST (12/20) 2:27 PM HST (12/20)
Length of Visible Light 11h 38m
Length of Day
10h 50m
Waning Crescent, 19% of the Moon is Illuminated
Dec 20
Waning Crescent
Dec 24
New
Dec 31
First Quarter
Jan 8
Full
Jan 15
Last Quarter

Hourly Weather History & Observations

Time (HST) Temp. Heat Index Dew Point Humidity Pressure Visibility Wind Dir Wind Speed Gust Speed Precip Events Conditions
12:53 AM 72.0 °F - 62.1 °F 71% 30.09 in 10.0 mi ENE 4.6 mph - N/A   Partly Cloudy
1:53 AM 72.0 °F - 62.1 °F 71% 30.07 in 10.0 mi Variable 3.5 mph - N/A   Scattered Clouds
2:53 AM 70.0 °F - 62.1 °F 76% 30.05 in 10.0 mi Calm Calm - N/A   Scattered Clouds
3:53 AM 71.1 °F - 62.1 °F 73% 30.02 in 10.0 mi Variable 4.6 mph - N/A   Scattered Clouds
4:53 AM 72.0 °F - 61.0 °F 68% 30.01 in 10.0 mi Variable 5.8 mph 18.4 mph N/A   Partly Cloudy
5:53 AM 72.0 °F - 62.1 °F 71% 30.02 in 10.0 mi Variable 4.6 mph - N/A   Partly Cloudy
6:53 AM 71.1 °F - 62.1 °F 73% 30.06 in 10.0 mi Variable 3.5 mph - N/A   Mostly Cloudy
7:53 AM 72.0 °F - 62.1 °F 71% 30.10 in 10.0 mi Variable 4.6 mph - N/A   Mostly Cloudy
8:53 AM 73.9 °F - 63.0 °F 68% 30.11 in 10.0 mi Variable 3.5 mph - N/A   Scattered Clouds
9:53 AM 77.0 °F - 64.0 °F 64% 30.11 in 10.0 mi Variable 4.6 mph - N/A   Partly Cloudy
10:53 AM 75.9 °F - 64.0 °F 67% 30.08 in 7.0 mi NE 12.7 mph 21.9 mph N/A   Mostly Cloudy
11:53 AM 75.9 °F - 63.0 °F 64% 30.06 in 8.0 mi ENE 11.5 mph 24.2 mph 0.00 in Rain Light Rain
12:53 PM 78.1 °F - 64.0 °F 62% 30.02 in 10.0 mi Variable 6.9 mph 21.9 mph 0.00 in   Partly Cloudy
1:53 PM 80.1 °F 81.5 °F 63.0 °F 56% 30.00 in 10.0 mi NE 9.2 mph 20.7 mph N/A   Partly Cloudy
2:53 PM 78.1 °F - 64.0 °F 62% 30.00 in 10.0 mi Variable 6.9 mph 16.1 mph N/A   Scattered Clouds
3:53 PM 75.9 °F - 64.0 °F 67% 30.01 in 10.0 mi ENE 5.8 mph - 0.00 in   Mostly Cloudy
4:53 PM 73.9 °F - 64.0 °F 71% 30.02 in 10.0 mi ENE 8.1 mph - 0.00 in   Mostly Cloudy
5:53 PM 72.0 °F - 64.0 °F 76% 30.03 in 10.0 mi ENE 5.8 mph - 0.00 in   Scattered Clouds
6:53 PM 71.1 °F - 64.0 °F 78% 30.05 in 10.0 mi Variable 4.6 mph - 0.00 in   Mostly Cloudy
7:53 PM 72.0 °F - 63.0 °F 73% 30.06 in 10.0 mi ENE 8.1 mph - 0.00 in   Mostly Cloudy
8:53 PM 73.0 °F - 63.0 °F 71% 30.06 in 10.0 mi ENE 6.9 mph - N/A   Mostly Cloudy
9:53 PM 72.0 °F - 63.0 °F 73% 30.06 in 10.0 mi ENE 6.9 mph - N/A   Mostly Cloudy
10:53 PM 72.0 °F - 63.0 °F 73% 30.04 in 10.0 mi Variable 4.6 mph - N/A   Partly Cloudy
11:53 PM 71.1 °F - 64.0 °F 78% 30.04 in 10.0 mi Variable 6.9 mph - N/A   Scattered Clouds